SPACECUBE (42717 NORAD) Tracking and Keplerian Element Data

This shows tracking and keplerian element data for the satellite.

Feedback or suggestion? Click here.




ElementValue
Catalog42717
NameSPACECUBE
Epoch Orbit7641
Epoch Day266.4157763
Epoch Year2018
RAAN211.5988
Inclination51.6261
Eccentricity3.65E-05
Argument of Perigee206.537
Mean Anonmoly153.5611
Mean Motion15.76794704
Decay Rate0.00061699
L11 42717U 98067LY 18266.41577630 .00061699 00000-0 37649-3 0 9990
L22 42717 51.6261 211.5988 0000365 206.5370 153.5611 15.76794704 76415

Live tracking and technical data element details for SPACECUBE (NORAD 42717). SPACECUBE can be tracked NOW for your location showing map with azimuth and elevation plus other details from your city location.

Track the satellite on the map from your city or location and see movement details for azimuth, elevation, latitude, longitude, range, height, and movement on the map or in text.







IsCatalogInMostPopularTable: catalog: 42717, numindb: 130
Update: records affected: 1



GetName: 42717 SPACECUBE

Hit Count: updated at: Tue, 25 Sep 2018 15:25:22 GMT